| time (UTC) | temp F | wind direction | speed knots | gust knots | rain 1hr in | rain 24hr in | rain mn in | humidity % | barometer mb |
| 20260505221549 | 51 | 347 | 0.9 | 4.3 | 0.00 | 0.00 | 0.00 | 80 | 1013.3 |
| 20260505220049 | 51 | 346 | 0.0 | 3.5 | 0.00 | 0.00 | 0.00 | 80 | 1013.2 |
| 20260505214549 | 51 | 346 | 0.0 | 2.6 | 0.00 | 0.00 | 0.00 | 79 | 1013.1 |
| 20260505213048 | 51 | 346 | 0.0 | 4.3 | 0.00 | 0.00 | 0.00 | 78 | 1013.2 |
| 20260505211548 | 52 | 346 | 0.0 | 3.5 | 0.00 | 0.00 | 0.00 | 77 | 1013.2 |
| 20260505210050 | 52 | 346 | 0.9 | 4.3 | 0.00 | 0.00 | 0.00 | 77 | 1013.2 |
| 20260505204550 | 52 | 346 | 0.9 | 4.3 | 0.00 | 0.00 | 0.00 | 76 | 1013.0 |
| 20260505203049 | 53 | 345 | 0.0 | 5.2 | 0.00 | 0.00 | 0.00 | 75 | 1013.0 |
| 20260505201549 | 53 | 345 | 0.9 | 5.2 | 0.00 | 0.00 | 0.00 | 74 | 1012.9 |
| 20260505200049 | 53 | 344 | 0.9 | 7.0 | 0.00 | 0.00 | 0.00 | 73 | 1012.8 |
| 20260505194549 | 53 | 344 | 0.9 | 5.2 | 0.00 | 0.00 | 0.00 | 72 | 1012.7 |
| 20260505193049 | 54 | 343 | 1.7 | 7.8 | 0.00 | 0.00 | 0.00 | 70 | 1012.6 |
| 20260505191548 | 54 | 346 | 3.5 | 11.3 | 0.00 | 0.00 | 0.00 | 68 | 1012.6 |
| 20260505190050 | 54 | 348 | 2.6 | 8.7 | 0.00 | 0.00 | 0.00 | 68 | 1012.4 |
| 20260505184549 | 55 | 350 | 1.7 | 8.7 | 0.00 | 0.00 | 0.00 | 68 | 1012.3 |
| 20260505183048 | 56 | 353 | 1.7 | 9.6 | 0.00 | 0.00 | 0.00 | 66 | 1012.3 |
| 20260505181548 | 56 | 354 | 2.6 | 7.8 | 0.00 | 0.00 | 0.00 | 65 | 1012.2 |
| 20260505180048 | 56 | 354 | 1.7 | 7.0 | 0.00 | 0.00 | 0.00 | 64 | 1012.2 |
| 20260505174550 | 56 | 352 | 2.6 | 9.6 | 0.00 | 0.00 | 0.00 | 64 | 1012.3 |
| 20260505173050 | 56 | 350 | 2.6 | 11.3 | 0.00 | 0.00 | 0.00 | 64 | 1012.4 |
| 20260505171549 | 56 | 349 | 4.3 | 10.4 | 0.00 | 0.00 | 0.00 | 64 | 1012.4 |
| 20260505170049 | 57 | 356 | 3.5 | 9.6 | 0.00 | 0.00 | 0.00 | 63 | 1012.4 |
| 20260505164549 | 58 | 22 | 2.6 | 9.6 | 0.00 | 0.00 | 0.00 | 59 | 1012.4 |
| 20260505163049 | 58 | 349 | 4.3 | 9.6 | 0.00 | 0.00 | 0.00 | 59 | 1012.4 |
| 20260505161548 | 58 | 359 | 2.6 | 8.7 | 0.00 | 0.00 | 0.00 | 58 | 1012.3 |
| 20260505153049 | 59 | 359 | 2.6 | 9.6 | 0.00 | 0.00 | 0.00 | 58 | 1012.4 |
| 20260505151549 | 58 | 15 | 2.6 | 7.8 | 0.00 | 0.00 | 0.00 | 58 | 1012.5 |
| 20260505124550 | 60 | 14 | 2.6 | 9.6 | 0.00 | 0.00 | 0.00 | 53 | 1012.8 |
| 20260505123050 | 59 | 13 | 2.6 | 8.7 | 0.00 | 0.00 | 0.00 | 55 | 1012.8 |
| 20260505121550 | 60 | 356 | 2.6 | 11.3 | 0.00 | 0.00 | 0.00 | 54 | 1012.9 |
| 20260505120050 | 59 | 359 | 2.6 | 9.6 | 0.00 | 0.00 | 0.00 | 55 | 1013.0 |
| 20260505114549 | 58 | 356 | 3.5 | 10.4 | 0.00 | 0.00 | 0.00 | 58 | 1013.0 |
| 20260505113050 | 58 | 359 | 0.9 | 7.8 | 0.00 | 0.00 | 0.00 | 59 | 1013.1 |
| 20260505111550 | 58 | 347 | 2.6 | 10.4 | 0.00 | 0.00 | 0.00 | 61 | 1013.1 |
| 20260505101550 | 56 | 5 | 2.6 | 11.3 | 0.00 | 0.00 | 0.00 | 67 | 1013.6 |
| 20260505100050 | 56 | 13 | 1.7 | 7.8 | 0.00 | 0.00 | 0.00 | 67 | 1013.6 |
| 20260505094550 | 56 | 4 | 3.5 | 13.0 | 0.00 | 0.00 | 0.00 | 69 | 1013.7 |
| 20260505093050 | 54 | 18 | 3.5 | 11.3 | 0.00 | 0.00 | 0.00 | 69 | 1013.6 |
| 20260505092702 | 55 | 0 | 0.0 | 0.0 | 0.11 | 0.11 | 0.11 | 93 | 1010.6 |
| 20260505091549 | 54 | 10 | 1.7 | 9.6 | 0.00 | 0.00 | 0.00 | 72 | 1013.7 |
| 20260505090050 | 53 | 6 | 2.6 | 11.3 | 0.00 | 0.00 | 0.00 | 72 | 1013.9 |
| 20260505084550 | 53 | 8 | 1.7 | 8.7 | 0.00 | 0.00 | 0.00 | 76 | 1014.1 |
| 20260505083049 | 51 | 2 | 1.7 | 8.7 | 0.00 | 0.00 | 0.00 | 80 | 1014.1 |
| 20260505081549 | 51 | 4 | 3.5 | 11.3 | 0.00 | 0.00 | 0.00 | 81 | 1014.3 |
| 20260505080051 | 50 | 16 | 2.6 | 9.6 | 0.00 | 0.00 | 0.00 | 82 | 1014.2 |
| 20260505074551 | 50 | 21 | 1.7 | 8.7 | 0.00 | 0.00 | 0.00 | 83 | 1014.1 |
| 20260505073050 | 50 | 25 | 1.7 | 8.7 | 0.00 | 0.00 | 0.00 | 84 | 1014.1 |
| 20260505071550 | 50 | 34 | 1.7 | 8.7 | 0.00 | 0.00 | 0.00 | 84 | 1014.1 |
| 20260505070050 | 50 | 36 | 0.9 | 5.2 | 0.00 | 0.00 | 0.00 | 85 | 1014.0 |
| 20260505064547 | 49 | 63 | 0.0 | 4.3 | 0.00 | 0.00 | 0.00 | 87 | 1014.1 |
| 20260505063047 | 48 | 67 | 0.9 | 7.8 | 0.00 | 0.00 | 0.00 | 89 | 1013.9 |
| 20260505061547 | 48 | 76 | 0.9 | 5.2 | 0.00 | 0.00 | 0.00 | 90 | 1014.0 |
| 20260505060047 | 47 | 76 | 0.0 | 2.6 | 0.00 | 0.00 | 0.00 | 93 | 1014.2 |
| 20260505054546 | 47 | 0 | 0.0 | 0.0 | 0.00 | 0.00 | 0.00 | 95 | 1014.2 |
| 20260505053046 | 47 | 0 | 0.0 | 0.0 | 0.00 | 0.00 | 0.00 | 96 | 1014.4 |
| 20260505051548 | 46 | 0 | 0.0 | 0.0 | 0.00 | 0.00 | 0.00 | 95 | 1014.3 |
| 20260505041548 | 46 | 0 | 0.0 | 0.0 | 0.00 | 0.00 | 0.00 | 94 | 1013.9 |
| 20260505040047 | 47 | 0 | 0.0 | 0.0 | 0.00 | 0.00 | 0.00 | 94 | 1013.9 |
| 20260505034547 | 47 | 0 | 0.0 | 0.0 | 0.00 | 0.00 | 0.00 | 94 | 1013.9 |
| 20260505033047 | 47 | 0 | 0.0 | 0.0 | 0.00 | 0.00 | 0.00 | 93 | 1014.1 |
| 20260505031546 | 48 | 77 | 0.0 | 3.5 | 0.00 | 0.00 | 0.00 | 92 | 1014.1 |
| 20260505030046 | 49 | 0 | 0.0 | 0.0 | 0.00 | 0.00 | 0.00 | 90 | 1014.0 |
| 20260505024549 | 49 | 0 | 0.0 | 0.0 | 0.00 | 0.00 | 0.00 | 91 | 1013.9 |
| 20260505023049 | 49 | 0 | 0.0 | 0.0 | 0.00 | 0.00 | 0.00 | 92 | 1014.0 |
| 20260505021548 | 48 | 0 | 0.0 | 0.0 | 0.00 | 0.00 | 0.00 | 93 | 1014.3 |
| 20260505020048 | 48 | 0 | 0.0 | 0.0 | 0.00 | 0.00 | 0.00 | 93 | 1014.3 |
| 20260505014548 | 48 | 0 | 0.0 | 0.0 | 0.00 | 0.00 | 0.00 | 93 | 1014.3 |
| 20260505013048 | 48 | 0 | 0.0 | 0.0 | 0.00 | 0.00 | 0.00 | 92 | 1014.4 |
| 20260505011548 | 47 | 0 | 0.0 | 0.0 | 0.00 | 0.00 | 0.00 | 93 | 1014.5 |
| 20260505010047 | 47 | 0 | 0.0 | 0.0 | 0.00 | 0.00 | 0.00 | 93 | 1014.4 |
| 20260505004547 | 47 | 78 | 0.0 | 2.6 | 0.00 | 0.00 | 0.00 | 91 | 1014.4 |
| 20260505003049 | 48 | 0 | 0.0 | 0.0 | 0.00 | 0.00 | 0.00 | 90 | 1014.4 |
| 20260505001549 | 49 | 0 | 0.0 | 0.0 | 0.00 | 0.00 | 0.00 | 89 | 1014.5 |
| 20260505000048 | 49 | 0 | 0.0 | 0.0 | 0.00 | 0.00 | 0.00 | 88 | 1014.6 |
| 20260504234548 | 50 | 0 | 0.0 | 0.0 | 0.00 | 0.00 | 0.00 | 88 | 1014.8 |
| 20260504233048 | 50 | 0 | 0.0 | 0.0 | 0.00 | 0.00 | 0.00 | 87 | 1014.7 |
| 20260504231547 | 50 | 0 | 0.0 | 0.0 | 0.00 | 0.00 | 0.00 | 86 | 1014.5 |
| 20260504230047 | 51 | 0 | 0.0 | 0.0 | 0.00 | 0.00 | 0.00 | 86 | 1014.6 |
| 20260504224550 | 51 | 0 | 0.0 | 0.0 | 0.00 | 0.00 | 0.00 | 84 | 1014.8 |
| 20260504223050 | 52 | 0 | 0.0 | 0.0 | 0.00 | 0.00 | 0.00 | 83 | 1014.8 |